Time,TemperatureF,DewpointF,PressureIn,WindDirection,WindDirectionDegrees,WindSpeedMPH,WindSpeedGustMPH,Humidity,HourlyPrecipIn,Conditions,Clouds,dailyrainin,SoftwareType,DateUTC
2013-07-18 00:01:00,59.5,54.4,30.22,SW,231,1.0,3.0,83,0.00,,,0.00,WUHU216DAVISVP2,2013-07-18 07:01:00,
2013-07-18 00:06:00,59.3,54.2,30.22,SW,225,0.0,3.0,83,0.00,,,0.00,WUHU216DAVISVP2,2013-07-18 07:06:00,
2013-07-18 00:11:00,59.2,54.1,30.23,WSW,248,2.0,3.0,83,0.00,,,0.00,WUHU216DAVISVP2,2013-07-18 07:11:00,
2013-07-18 00:16:00,59.1,54.3,30.23,WSW,246,1.0,3.0,84,0.00,,,0.00,WUHU216DAVISVP2,2013-07-18 07:16:00,
2013-07-18 00:21:00,59.0,54.2,30.23,SW,229,1.0,4.0,84,0.00,,,0.00,WUHU216DAVISVP2,2013-07-18 07:21:00,
2013-07-18 00:26:00,58.9,54.1,30.23,WSW,243,0.0,4.0,84,0.00,,,0.00,WUHU216DAVISVP2,2013-07-18 07:26:00,
2013-07-18 00:31:00,58.8,54.3,30.23,WSW,249,1.0,3.0,85,0.00,,,0.00,WUHU216DAVISVP2,2013-07-18 07:31:00,
2013-07-18 00:36:00,58.7,54.2,30.23,WSW,239,0.0,3.0,85,0.00,,,0.00,WUHU216DAVISVP2,2013-07-18 07:36:00,
2013-07-18 00:41:00,58.6,54.1,30.23,SSW,203,0.0,3.0,85,0.00,,,0.00,WUHU216DAVISVP2,2013-07-18 07:41:00,
2013-07-18 00:46:00,58.4,54.2,30.23,SW,231,0.0,2.0,86,0.00,,,0.00,WUHU216DAVISVP2,2013-07-18 07:46:00,
2013-07-18 00:51:00,58.3,54.1,30.23,SW,221,1.0,2.0,86,0.00,,,0.00,WUHU216DAVISVP2,2013-07-18 07:51:00,
2013-07-18 00:56:00,58.2,54.0,30.23,SW,232,0.0,2.0,86,0.00,,,0.00,WUHU216DAVISVP2,2013-07-18 07:56:00,
2013-07-18 01:01:00,58.0,53.8,30.23,SW,221,0.0,1.0,86,0.00,,,0.00,WUHU216DAVISVP2,2013-07-18 08:01:00,
2013-07-18 01:06:00,57.9,54.0,30.23,WSW,257,0.0,1.0,87,0.00,,,0.00,WUHU216DAVISVP2,2013-07-18 08:06:00,
2013-07-18 01:11:00,57.8,53.9,30.23,WSW,257,0.0,1.0,87,0.00,,,0.00,WUHU216DAVISVP2,2013-07-18 08:11:00,
2013-07-18 01:16:00,57.8,53.9,30.23,WSW,239,0.0,1.0,87,0.00,,,0.00,WUHU216DAVISVP2,2013-07-18 08:16:00,
2013-07-18 01:21:00,57.8,53.9,30.23,WSW,240,1.0,3.0,87,0.00,,,0.00,WUHU216DAVISVP2,2013-07-18 08:21:00,
2013-07-18 01:26:00,57.7,53.8,30.23,SW,236,0.0,3.0,87,0.00,,,0.00,WUHU216DAVISVP2,2013-07-18 08:26:00,
2013-07-18 01:31:00,57.6,53.4,30.23,WSW,245,1.0,3.0,86,0.00,,,0.00,WUHU216DAVISVP2,2013-07-18 08:31:00,
2013-07-18 01:36:00,57.5,53.6,30.23,WSW,245,0.0,3.0,87,0.00,,,0.00,WUHU216DAVISVP2,2013-07-18 08:36:00,
2013-07-18 01:41:00,57.5,53.7,30.23,WSW,254,1.0,3.0,87,0.00,,,0.00,WUHU216DAVISVP2,2013-07-18 08:41:00,
2013-07-18 01:46:00,57.5,53.7,30.23,WSW,245,1.0,3.0,87,0.00,,,0.00,WUHU216DAVISVP2,2013-07-18 08:46:00,
2013-07-18 01:51:00,57.5,53.3,30.23,WSW,240,0.0,2.0,86,0.00,,,0.00,WUHU216DAVISVP2,2013-07-18 08:51:00,
2013-07-18 01:56:00,57.5,53.3,30.23,WSW,240,0.0,2.0,86,0.00,,,0.00,WUHU216DAVISVP2,2013-07-18 08:56:00,
2013-07-18 02:01:00,57.4,53.5,30.23,WSW,240,0.0,1.0,87,0.00,,,0.00,WUHU216DAVISVP2,2013-07-18 09:01:00,
2013-07-18 02:06:00,57.4,53.5,30.23,WSW,240,0.0,1.0,87,0.00,,,0.00,WUHU216DAVISVP2,2013-07-18 09:06:00,
2013-07-18 02:11:00,57.4,53.5,30.23,WSW,241,1.0,1.0,87,0.00,,,0.00,WUHU216DAVISVP2,2013-07-18 09:11:00,
2013-07-18 02:16:00,57.5,53.6,30.24,WSW,241,0.0,1.0,87,0.00,,,0.00,WUHU216DAVISVP2,2013-07-18 09:16:00,
2013-07-18 02:21:00,57.5,53.6,30.24,WSW,240,0.0,1.0,87,0.00,,,0.00,WUHU216DAVISVP2,2013-07-18 09:21:00,
2013-07-18 02:26:00,57.5,53.6,30.24,WSW,241,0.0,1.0,87,0.00,,,0.00,WUHU216DAVISVP2,2013-07-18 09:26:00,
2013-07-18 02:31:00,57.6,53.7,30.24,WSW,240,0.0,1.0,87,0.00,,,0.00,WUHU216DAVISVP2,2013-07-18 09:31:00,
2013-07-18 02:36:00,57.7,53.8,30.24,WSW,241,0.0,0.0,87,0.00,,,0.00,WUHU216DAVISVP2,2013-07-18 09:36:00,
2013-07-18 02:41:00,57.8,53.9,30.24,WSW,241,0.0,0.0,87,0.00,,,0.00,WUHU216DAVISVP2,2013-07-18 09:41:00,
2013-07-18 02:46:00,57.9,54.1,30.24,WSW,243,0.0,1.0,87,0.00,,,0.00,WUHU216DAVISVP2,2013-07-18 09:46:00,
2013-07-18 02:51:00,58.0,53.8,30.24,SW,233,0.0,1.0,86,0.00,,,0.00,WUHU216DAVISVP2,2013-07-18 09:51:00,
2013-07-18 02:56:00,58.1,53.9,30.24,SW,234,0.0,1.0,86,0.00,,,0.00,WUHU216DAVISVP2,2013-07-18 09:56:00,
2013-07-18 03:01:00,58.2,54.0,30.24,SW,233,0.0,1.0,86,0.00,,,0.00,WUHU216DAVISVP2,2013-07-18 10:01:00,
2013-07-18 03:06:00,58.3,54.1,30.24,SW,233,0.0,1.0,86,0.00,,,0.00,WUHU216DAVISVP2,2013-07-18 10:06:00,
2013-07-18 03:11:00,58.5,54.3,30.24,SW,233,0.0,1.0,86,0.00,,,0.00,WUHU216DAVISVP2,2013-07-18 10:11:00,
2013-07-18 03:16:00,58.6,54.1,30.24,SW,226,0.0,1.0,85,0.00,,,0.00,WUHU216DAVISVP2,2013-07-18 10:16:00,
2013-07-18 03:21:00,58.7,54.2,30.24,SW,225,0.0,1.0,85,0.00,,,0.00,WUHU216DAVISVP2,2013-07-18 10:21:00,
2013-07-18 03:26:00,58.7,54.2,30.24,SW,225,0.0,1.0,85,0.00,,,0.00,WUHU216DAVISVP2,2013-07-18 10:26:00,
2013-07-18 03:31:00,58.8,54.3,30.24,SW,225,0.0,1.0,85,0.00,,,0.00,WUHU216DAVISVP2,2013-07-18 10:31:00,
2013-07-18 03:36:00,58.8,54.3,30.24,East,86,0.0,1.0,85,0.00,,,0.00,WUHU216DAVISVP2,2013-07-18 10:36:00,
2013-07-18 03:41:00,58.8,54.3,30.24,East,86,0.0,1.0,85,0.00,,,0.00,WUHU216DAVISVP2,2013-07-18 10:41:00,
2013-07-18 03:46:00,58.8,54.6,30.24,ESE,122,0.0,1.0,86,0.00,,,0.00,WUHU216DAVISVP2,2013-07-18 10:46:00,
2013-07-18 03:51:00,58.7,54.5,30.24,ENE,63,0.0,1.0,86,0.00,,,0.00,WUHU216DAVISVP2,2013-07-18 10:51:00,
2013-07-18 03:56:00,58.7,54.5,30.24,SSW,200,0.0,1.0,86,0.00,,,0.00,WUHU216DAVISVP2,2013-07-18 10:56:00,
2013-07-18 04:01:00,58.6,54.4,30.24,SSW,197,0.0,1.0,86,0.00,,,0.00,WUHU216DAVISVP2,2013-07-18 11:01:00,
2013-07-18 04:06:00,58.6,54.4,30.24,SSE,166,0.0,1.0,86,0.00,,,0.00,WUHU216DAVISVP2,2013-07-18 11:06:00,
2013-07-18 04:11:00,58.6,54.4,30.24,SSE,160,0.0,1.0,86,0.00,,,0.00,WUHU216DAVISVP2,2013-07-18 11:11:00,
2013-07-18 04:16:00,58.6,54.4,30.24,SSE,160,0.0,1.0,86,0.00,,,0.00,WUHU216DAVISVP2,2013-07-18 11:16:00,
2013-07-18 04:21:00,58.5,54.3,30.24,SSE,160,0.0,1.0,86,0.00,,,0.00,WUHU216DAVISVP2,2013-07-18 11:21:00,
2013-07-18 04:26:00,58.5,54.6,30.24,SSE,160,0.0,1.0,87,0.00,,,0.00,WUHU216DAVISVP2,2013-07-18 11:26:00,
2013-07-18 04:31:00,58.5,54.6,30.24,SSE,159,0.0,0.0,87,0.00,,,0.00,WUHU216DAVISVP2,2013-07-18 11:31:00,
2013-07-18 04:36:00,58.4,54.5,30.24,SSE,160,0.0,0.0,87,0.00,,,0.00,WUHU216DAVISVP2,2013-07-18 11:36:00,
2013-07-18 04:41:00,58.4,54.5,30.24,SSE,160,0.0,1.0,87,0.00,,,0.00,WUHU216DAVISVP2,2013-07-18 11:41:00,
2013-07-18 04:46:00,58.4,54.5,30.24,SSE,166,0.0,1.0,87,0.00,,,0.00,WUHU216DAVISVP2,2013-07-18 11:46:00,
2013-07-18 04:51:00,58.3,54.4,30.24,SSE,166,0.0,1.0,87,0.00,,,0.00,WUHU216DAVISVP2,2013-07-18 11:51:00,
2013-07-18 04:56:00,58.3,54.4,30.24,SSE,166,0.0,1.0,87,0.00,,,0.00,WUHU216DAVISVP2,2013-07-18 11:56:00,
2013-07-18 05:01:00,58.3,54.8,30.24,SSE,164,0.0,1.0,88,0.00,,,0.00,WUHU216DAVISVP2,2013-07-18 12:01:00,
2013-07-18 05:06:00,58.2,54.6,30.24,SSE,163,0.0,1.0,88,0.00,,,0.00,WUHU216DAVISVP2,2013-07-18 12:06:00,
2013-07-18 05:11:00,58.2,54.6,30.24,South,174,0.0,1.0,88,0.00,,,0.00,WUHU216DAVISVP2,2013-07-18 12:11:00,
2013-07-18 05:16:00,58.2,54.6,30.24,South,174,0.0,1.0,88,0.00,,,0.00,WUHU216DAVISVP2,2013-07-18 12:16:00,
2013-07-18 05:21:00,58.3,54.7,30.24,SSW,212,0.0,1.0,88,0.00,,,0.00,WUHU216DAVISVP2,2013-07-18 12:21:00,
2013-07-18 05:26:00,58.2,54.6,30.24,SSW,212,0.0,1.0,88,0.00,,,0.00,WUHU216DAVISVP2,2013-07-18 12:26:00,
2013-07-18 05:31:00,58.2,54.6,30.24,SSW,212,0.0,1.0,88,0.00,,,0.00,WUHU216DAVISVP2,2013-07-18 12:31:00,
2013-07-18 05:36:00,58.1,54.5,30.24,SSW,212,0.0,0.0,88,0.00,,,0.00,WUHU216DAVISVP2,2013-07-18 12:36:00,
2013-07-18 05:41:00,58.1,54.5,30.24,SSW,212,0.0,0.0,88,0.00,,,0.00,WUHU216DAVISVP2,2013-07-18 12:41:00,
2013-07-18 05:46:00,58.2,54.6,30.24,SSW,212,0.0,0.0,88,0.00,,,0.00,WUHU216DAVISVP2,2013-07-18 12:46:00,
2013-07-18 05:51:00,58.3,54.4,30.24,SSW,212,0.0,0.0,87,0.00,,,0.00,WUHU216DAVISVP2,2013-07-18 12:51:00,
2013-07-18 05:56:00,58.3,54.4,30.24,SSW,212,0.0,0.0,87,0.00,,,0.00,WUHU216DAVISVP2,2013-07-18 12:56:00,
2013-07-18 06:01:00,58.3,54.4,30.25,SSW,212,0.0,0.0,87,0.00,,,0.00,WUHU216DAVISVP2,2013-07-18 13:01:00,
2013-07-18 06:06:00,58.4,54.5,30.25,NNE,30,0.0,1.0,87,0.00,,,0.00,WUHU216DAVISVP2,2013-07-18 13:06:00,
2013-07-18 06:11:00,58.6,54.4,30.24,NNW,338,1.0,1.0,86,0.00,,,0.00,WUHU216DAVISVP2,2013-07-18 13:11:00,
2013-07-18 06:16:00,58.7,53.9,30.25,North,359,0.0,2.0,84,0.00,,,0.00,WUHU216DAVISVP2,2013-07-18 13:16:00,
2013-07-18 06:21:00,58.8,54.0,30.25,North,359,0.0,2.0,84,0.00,,,0.00,WUHU216DAVISVP2,2013-07-18 13:21:00,
2013-07-18 06:26:00,58.9,54.1,30.25,North,359,0.0,2.0,84,0.00,,,0.00,WUHU216DAVISVP2,2013-07-18 13:26:00,
2013-07-18 06:31:00,59.0,54.2,30.25,North,355,0.0,2.0,84,0.00,,,0.00,WUHU216DAVISVP2,2013-07-18 13:31:00,
2013-07-18 06:36:00,59.1,54.0,30.25,North,360,0.0,1.0,83,0.00,,,0.00,WUHU216DAVISVP2,2013-07-18 13:36:00,
2013-07-18 06:41:00,59.2,54.1,30.26,North,360,0.0,1.0,83,0.00,,,0.00,WUHU216DAVISVP2,2013-07-18 13:41:00,
2013-07-18 06:46:00,59.2,54.1,30.26,North,349,0.0,1.0,83,0.00,,,0.00,WUHU216DAVISVP2,2013-07-18 13:46:00,
2013-07-18 06:51:00,59.2,54.1,30.26,North,1,0.0,2.0,83,0.00,,,0.00,WUHU216DAVISVP2,2013-07-18 13:51:00,
2013-07-18 06:56:00,59.3,54.2,30.26,NNW,340,0.0,2.0,83,0.00,,,0.00,WUHU216DAVISVP2,2013-07-18 13:56:00,
2013-07-18 07:01:00,59.3,53.8,30.26,NNE,13,0.0,2.0,82,0.00,,,0.00,WUHU216DAVISVP2,2013-07-18 14:01:00,
2013-07-18 07:06:00,59.4,53.9,30.26,North,8,0.0,2.0,82,0.00,,,0.00,WUHU216DAVISVP2,2013-07-18 14:06:00,
2013-07-18 07:11:00,59.5,54.0,30.26,North,6,0.0,1.0,82,0.00,,,0.00,WUHU216DAVISVP2,2013-07-18 14:11:00,
2013-07-18 07:16:00,59.7,54.2,30.26,North,8,0.0,1.0,82,0.00,,,0.00,WUHU216DAVISVP2,2013-07-18 14:16:00,
2013-07-18 07:21:00,59.8,54.0,30.26,North,357,0.0,1.0,81,0.00,,,0.00,WUHU216DAVISVP2,2013-07-18 14:21:00,
2013-07-18 07:26:00,59.8,54.0,30.26,NNW,347,0.0,1.0,81,0.00,,,0.00,WUHU216DAVISVP2,2013-07-18 14:26:00,
2013-07-18 07:31:00,59.8,54.0,30.26,NNW,348,0.0,1.0,81,0.00,,,0.00,WUHU216DAVISVP2,2013-07-18 14:31:00,
2013-07-18 07:36:00,59.9,54.4,30.26,North,357,0.0,1.0,82,0.00,,,0.00,WUHU216DAVISVP2,2013-07-18 14:36:00,
2013-07-18 07:41:00,60.0,54.2,30.26,NNE,20,0.0,1.0,81,0.00,,,0.00,WUHU216DAVISVP2,2013-07-18 14:41:00,
2013-07-18 07:46:00,60.2,54.4,30.26,NNE,20,0.0,1.0,81,0.00,,,0.00,WUHU216DAVISVP2,2013-07-18 14:46:00,
2013-07-18 07:51:00,60.4,54.3,30.26,NNE,20,0.0,1.0,80,0.00,,,0.00,WUHU216DAVISVP2,2013-07-18 14:51:00,
2013-07-18 07:56:00,60.5,54.3,30.26,NNE,20,1.0,1.0,80,0.00,,,0.00,WUHU216DAVISVP2,2013-07-18 14:56:00,
2013-07-18 08:01:00,60.7,54.2,30.26,NE,55,0.0,1.0,79,0.00,,,0.00,WUHU216DAVISVP2,2013-07-18 15:01:00,
2013-07-18 08:06:00,60.7,54.2,30.26,NNE,13,0.0,1.0,79,0.00,,,0.00,WUHU216DAVISVP2,2013-07-18 15:06:00,
2013-07-18 08:11:00,60.7,54.2,30.26,NNE,32,0.0,1.0,79,0.00,,,0.00,WUHU216DAVISVP2,2013-07-18 15:11:00,
2013-07-18 08:16:00,60.7,54.2,30.26,NNE,30,0.0,1.0,79,0.00,,,0.00,WUHU216DAVISVP2,2013-07-18 15:16:00,
2013-07-18 08:21:00,60.9,54.4,30.26,NNE,30,0.0,1.0,79,0.00,,,0.00,WUHU216DAVISVP2,2013-07-18 15:21:00,
2013-07-18 08:26:00,61.0,54.2,30.26,North,8,0.0,4.0,78,0.00,,,0.00,WUHU216DAVISVP2,2013-07-18 15:26:00,
2013-07-18 08:31:00,61.0,54.5,30.26,NE,41,1.0,4.0,79,0.00,,,0.00,WUHU216DAVISVP2,2013-07-18 15:31:00,
2013-07-18 08:36:00,61.2,54.3,30.26,NNE,27,0.0,3.0,78,0.00,,,0.00,WUHU216DAVISVP2,2013-07-18 15:36:00,
2013-07-18 08:41:00,61.5,54.2,30.26,North,5,0.0,3.0,77,0.00,,,0.00,WUHU216DAVISVP2,2013-07-18 15:41:00,
2013-07-18 08:46:00,61.6,54.3,30.26,NNE,23,0.0,2.0,77,0.00,,,0.00,WUHU216DAVISVP2,2013-07-18 15:46:00,
2013-07-18 08:51:00,61.8,54.6,30.26,NNW,347,0.0,1.0,77,0.00,,,0.00,WUHU216DAVISVP2,2013-07-18 15:51:00,
2013-07-18 08:56:00,61.7,54.5,30.26,NE,42,4.0,5.0,77,0.00,,,0.00,WUHU216DAVISVP2,2013-07-18 15:56:00,
2013-07-18 09:01:00,61.6,54.4,30.26,North,354,0.0,5.0,77,0.00,,,0.00,WUHU216DAVISVP2,2013-07-18 16:01:00,
2013-07-18 09:06:00,62.0,54.4,30.27,North,11,0.0,5.0,76,0.00,,,0.00,WUHU216DAVISVP2,2013-07-18 16:06:00,
2013-07-18 09:11:00,61.8,54.6,30.26,North,360,1.0,4.0,77,0.00,,,0.00,WUHU216DAVISVP2,2013-07-18 16:11:00,
2013-07-18 09:16:00,62.0,54.8,30.26,SSE,166,0.0,3.0,77,0.00,,,0.00,WUHU216DAVISVP2,2013-07-18 16:16:00,
2013-07-18 09:21:00,62.3,54.7,30.26,NNW,347,0.0,3.0,76,0.00,,,0.00,WUHU216DAVISVP2,2013-07-18 16:21:00,
2013-07-18 09:26:00,62.5,54.6,30.26,NNW,340,0.0,3.0,75,0.00,,,0.00,WUHU216DAVISVP2,2013-07-18 16:26:00,
2013-07-18 09:31:00,63.0,55.1,30.26,North,353,0.0,3.0,75,0.00,,,0.00,WUHU216DAVISVP2,2013-07-18 16:31:00,
2013-07-18 09:36:00,63.4,55.0,30.26,West,278,0.0,2.0,74,0.00,,,0.00,WUHU216DAVISVP2,2013-07-18 16:36:00,
2013-07-18 09:41:00,63.9,55.6,30.26,SW,219,0.0,2.0,74,0.00,,,0.00,WUHU216DAVISVP2,2013-07-18 16:41:00,
2013-07-18 09:46:00,64.4,55.3,30.26,North,350,0.0,2.0,72,0.00,,,0.00,WUHU216DAVISVP2,2013-07-18 16:46:00,
2013-07-18 09:51:00,64.7,55.6,30.26,SW,222,0.0,1.0,72,0.00,,,0.00,WUHU216DAVISVP2,2013-07-18 16:51:00,
2013-07-18 09:56:00,64.9,55.4,30.26,WSW,249,1.0,4.0,71,0.00,,,0.00,WUHU216DAVISVP2,2013-07-18 16:56:00,
2013-07-18 10:01:00,65.1,56.0,30.26,NE,41,0.0,4.0,72,0.00,,,0.00,WUHU216DAVISVP2,2013-07-18 17:01:00,
2013-07-18 10:06:00,65.2,55.3,30.26,NNW,328,0.0,3.0,70,0.00,,,0.00,WUHU216DAVISVP2,2013-07-18 17:06:00,
2013-07-18 10:11:00,65.3,55.7,30.26,WSW,256,0.0,3.0,71,0.00,,,0.00,WUHU216DAVISVP2,2013-07-18 17:11:00,
2013-07-18 10:16:00,65.6,55.2,30.26,North,10,1.0,3.0,69,0.00,,,0.00,WUHU216DAVISVP2,2013-07-18 17:16:00,
2013-07-18 10:21:00,65.7,55.6,30.26,ENE,75,1.0,3.0,70,0.00,,,0.00,WUHU216DAVISVP2,2013-07-18 17:21:00,
2013-07-18 10:26:00,66.2,55.9,30.26,NE,51,0.0,2.0,69,0.00,,,0.00,WUHU216DAVISVP2,2013-07-18 17:26:00,
2013-07-18 10:31:00,66.7,55.8,30.26,NNE,32,0.0,1.0,68,0.00,,,0.00,WUHU216DAVISVP2,2013-07-18 17:31:00,
2013-07-18 10:36:00,66.8,56.1,30.26,NNE,26,0.0,2.0,68,0.00,,,0.00,WUHU216DAVISVP2,2013-07-18 17:36:00,
2013-07-18 10:41:00,67.0,55.9,30.26,North,4,0.0,2.0,67,0.00,,,0.00,WUHU216DAVISVP2,2013-07-18 17:41:00,
2013-07-18 10:46:00,67.1,56.0,30.26,NNE,18,1.0,2.0,67,0.00,,,0.00,WUHU216DAVISVP2,2013-07-18 17:46:00,
2013-07-18 10:51:00,67.3,55.5,30.26,SSE,150,0.0,2.0,66,0.00,,,0.00,WUHU216DAVISVP2,2013-07-18 17:51:00,
2013-07-18 10:56:00,67.6,56.0,30.26,North,8,0.0,2.0,66,0.00,,,0.00,WUHU216DAVISVP2,2013-07-18 17:56:00,
2013-07-18 11:01:00,67.9,55.9,30.26,North,5,0.0,2.0,65,0.00,,,0.00,WUHU216DAVISVP2,2013-07-18 18:01:00,
2013-07-18 11:06:00,68.2,56.0,30.26,NNE,15,0.0,2.0,65,0.00,,,0.00,WUHU216DAVISVP2,2013-07-18 18:06:00,
2013-07-18 11:11:00,68.7,56.0,30.25,NNE,23,0.0,2.0,64,0.00,,,0.00,WUHU216DAVISVP2,2013-07-18 18:11:00,
2013-07-18 11:16:00,69.1,56.6,30.25,WSW,248,0.0,2.0,64,0.00,,,0.00,WUHU216DAVISVP2,2013-07-18 18:16:00,
2013-07-18 11:21:00,69.2,56.3,30.25,SW,228,0.0,3.0,63,0.00,,,0.00,WUHU216DAVISVP2,2013-07-18 18:21:00,
2013-07-18 11:26:00,69.4,56.0,30.25,NE,41,0.0,3.0,62,0.00,,,0.00,WUHU216DAVISVP2,2013-07-18 18:26:00,
2013-07-18 11:31:00,69.7,56.3,30.25,North,352,0.0,2.0,62,0.00,,,0.00,WUHU216DAVISVP2,2013-07-18 18:31:00,
2013-07-18 11:36:00,69.9,56.5,30.25,NE,39,0.0,3.0,62,0.00,,,0.00,WUHU216DAVISVP2,2013-07-18 18:36:00,
2013-07-18 11:41:00,70.3,55.9,30.25,WSW,243,1.0,3.0,60,0.00,,,0.00,WUHU216DAVISVP2,2013-07-18 18:41:00,
2013-07-18 11:46:00,70.7,56.3,30.25,SW,228,0.0,3.0,60,0.00,,,0.00,WUHU216DAVISVP2,2013-07-18 18:46:00,
2013-07-18 11:51:00,70.6,56.5,30.24,SW,219,0.0,6.0,61,0.00,,,0.00,WUHU216DAVISVP2,2013-07-18 18:51:00,
2013-07-18 11:56:00,71.1,56.7,30.24,WSW,246,3.0,6.0,60,0.00,,,0.00,WUHU216DAVISVP2,2013-07-18 18:56:00,
2013-07-18 12:01:00,70.9,56.8,30.24,ENE,76,0.0,7.0,61,0.00,,,0.00,WUHU216DAVISVP2,2013-07-18 19:01:00,
2013-07-18 12:06:00,70.5,55.7,30.24,WSW,245,2.0,7.0,59,0.00,,,0.00,WUHU216DAVISVP2,2013-07-18 19:06:00,
2013-07-18 12:11:00,68.9,55.5,30.24,WNW,296,1.0,7.0,62,0.00,,,0.00,WUHU216DAVISVP2,2013-07-18 19:11:00,
2013-07-18 12:16:00,69.2,56.3,30.24,WSW,248,1.0,7.0,63,0.00,,,0.00,WUHU216DAVISVP2,2013-07-18 19:16:00,
2013-07-18 12:21:00,70.0,56.4,30.24,SSE,147,2.0,7.0,62,0.00,,,0.00,WUHU216DAVISVP2,2013-07-18 19:21:00,
2013-07-18 12:26:00,70.4,56.5,30.24,NNE,12,0.0,7.0,61,0.00,,,0.00,WUHU216DAVISVP2,2013-07-18 19:26:00,
2013-07-18 12:31:00,71.0,57.1,30.24,ESE,108,0.0,7.0,61,0.00,,,0.00,WUHU216DAVISVP2,2013-07-18 19:31:00,
2013-07-18 12:36:00,71.6,57.2,30.24,SE,138,1.0,4.0,60,0.00,,,0.00,WUHU216DAVISVP2,2013-07-18 19:36:00,
2013-07-18 12:41:00,72.1,57.0,30.24,SSW,198,0.0,5.0,59,0.00,,,0.00,WUHU216DAVISVP2,2013-07-18 19:41:00,
2013-07-18 12:46:00,72.6,57.2,30.24,North,352,0.0,5.0,58,0.00,,,0.00,WUHU216DAVISVP2,2013-07-18 19:46:00,
2013-07-18 12:51:00,72.7,57.2,30.24,North,5,2.0,5.0,58,0.00,,,0.00,WUHU216DAVISVP2,2013-07-18 19:51:00,
2013-07-18 12:56:00,72.4,57.0,30.23,NNE,16,1.0,4.0,58,0.00,,,0.00,WUHU216DAVISVP2,2013-07-18 19:56:00,
2013-07-18 13:01:00,71.3,56.2,30.23,NNW,348,2.0,5.0,59,0.00,,,0.00,WUHU216DAVISVP2,2013-07-18 20:01:00,
2013-07-18 13:06:00,72.1,57.2,30.23,NNE,30,0.0,5.0,59,0.00,,,0.00,WUHU216DAVISVP2,2013-07-18 20:06:00,
2013-07-18 13:11:00,72.9,56.9,30.23,SE,135,0.0,5.0,57,0.00,,,0.00,WUHU216DAVISVP2,2013-07-18 20:11:00,
2013-07-18 13:16:00,73.5,57.0,30.23,NNE,27,1.0,5.0,56,0.00,,,0.00,WUHU216DAVISVP2,2013-07-18 20:16:00,
2013-07-18 13:21:00,73.6,56.9,30.23,SW,228,0.0,3.0,56,0.00,,,0.00,WUHU216DAVISVP2,2013-07-18 20:21:00,
2013-07-18 13:26:00,74.4,57.3,30.23,North,6,0.0,3.0,55,0.00,,,0.00,WUHU216DAVISVP2,2013-07-18 20:26:00,
2013-07-18 13:31:00,74.6,56.5,30.23,North,357,1.0,3.0,53,0.00,,,0.00,WUHU216DAVISVP2,2013-07-18 20:31:00,
2013-07-18 13:36:00,74.7,57.1,30.23,North,5,1.0,3.0,54,0.00,,,0.00,WUHU216DAVISVP2,2013-07-18 20:36:00,
2013-07-18 13:41:00,74.1,56.5,30.22,NNE,22,0.0,4.0,54,0.00,,,0.00,WUHU216DAVISVP2,2013-07-18 20:41:00,
2013-07-18 13:46:00,73.8,56.8,30.22,North,352,1.0,4.0,55,0.00,,,0.00,WUHU216DAVISVP2,2013-07-18 20:46:00,
2013-07-18 13:51:00,73.3,56.3,30.22,North,356,2.0,4.0,55,0.00,,,0.00,WUHU216DAVISVP2,2013-07-18 20:51:00,
2013-07-18 13:56:00,73.8,57.1,30.22,SSW,205,2.0,4.0,56,0.00,,,0.00,WUHU216DAVISVP2,2013-07-18 20:56:00,
2013-07-18 14:01:00,73.7,56.7,30.22,NNE,13,0.0,7.0,55,0.00,,,0.00,WUHU216DAVISVP2,2013-07-18 21:01:00,
2013-07-18 14:06:00,74.8,57.2,30.22,NE,45,1.0,7.0,54,0.00,,,0.00,WUHU216DAVISVP2,2013-07-18 21:06:00,
2013-07-18 14:11:00,75.7,57.5,30.22,ESE,118,0.0,6.0,53,0.00,,,0.00,WUHU216DAVISVP2,2013-07-18 21:11:00,
2013-07-18 14:16:00,76.0,57.2,30.22,NE,44,2.0,6.0,52,0.00,,,0.00,WUHU216DAVISVP2,2013-07-18 21:16:00,
2013-07-18 14:21:00,75.7,57.5,30.22,North,357,0.0,6.0,53,0.00,,,0.00,WUHU216DAVISVP2,2013-07-18 21:21:00,
2013-07-18 14:26:00,75.9,57.1,30.21,ENE,68,0.0,6.0,52,0.00,,,0.00,WUHU216DAVISVP2,2013-07-18 21:26:00,
2013-07-18 14:31:00,75.9,57.1,30.21,NNE,19,2.0,9.0,52,0.00,,,0.00,WUHU216DAVISVP2,2013-07-18 21:31:00,
2013-07-18 14:36:00,76.1,57.9,30.21,SW,222,2.0,9.0,53,0.00,,,0.00,WUHU216DAVISVP2,2013-07-18 21:36:00,
2013-07-18 14:41:00,76.0,57.6,30.21,NNE,24,0.0,8.0,53,0.00,,,0.00,WUHU216DAVISVP2,2013-07-18 21:41:00,
2013-07-18 14:46:00,76.6,57.8,30.21,SW,236,2.0,8.0,52,0.00,,,0.00,WUHU216DAVISVP2,2013-07-18 21:46:00,
2013-07-18 14:51:00,76.6,57.2,30.20,SW,228,1.0,7.0,51,0.00,,,0.00,WUHU216DAVISVP2,2013-07-18 21:51:00,
2013-07-18 14:56:00,77.0,57.6,30.20,SSE,163,2.0,5.0,51,0.00,,,0.00,WUHU216DAVISVP2,2013-07-18 21:56:00,
2013-07-18 15:01:00,76.8,57.4,30.20,SSE,151,0.0,5.0,51,0.00,,,0.00,WUHU216DAVISVP2,2013-07-18 22:01:00,
2013-07-18 15:06:00,77.2,57.8,30.20,WNW,291,1.0,7.0,51,0.00,,,0.00,WUHU216DAVISVP2,2013-07-18 22:06:00,
2013-07-18 15:11:00,77.1,57.6,30.20,ESE,107,3.0,7.0,51,0.00,,,0.00,WUHU216DAVISVP2,2013-07-18 22:11:00,
2013-07-18 15:16:00,76.6,57.8,30.20,NE,50,1.0,9.0,52,0.00,,,0.00,WUHU216DAVISVP2,2013-07-18 22:16:00,
2013-07-18 15:21:00,77.0,57.0,30.20,SSW,210,2.0,9.0,50,0.00,,,0.00,WUHU216DAVISVP2,2013-07-18 22:21:00,
2013-07-18 15:26:00,77.1,57.1,30.20,SSE,150,2.0,8.0,50,0.00,,,0.00,WUHU216DAVISVP2,2013-07-18 22:26:00,
2013-07-18 15:31:00,76.6,57.1,30.20,WSW,239,2.0,6.0,51,0.00,,,0.00,WUHU216DAVISVP2,2013-07-18 22:31:00,
2013-07-18 15:36:00,75.5,56.8,30.20,ESE,107,1.0,8.0,52,0.00,,,0.00,WUHU216DAVISVP2,2013-07-18 22:36:00,
2013-07-18 15:41:00,76.0,56.6,30.20,SW,228,0.0,8.0,51,0.00,,,0.00,WUHU216DAVISVP2,2013-07-18 22:41:00,
2013-07-18 15:46:00,76.2,57.4,30.19,South,172,1.0,7.0,52,0.00,,,0.00,WUHU216DAVISVP2,2013-07-18 22:46:00,
2013-07-18 15:51:00,75.0,56.8,30.19,WSW,245,3.0,9.0,53,0.00,,,0.00,WUHU216DAVISVP2,2013-07-18 22:51:00,
2013-07-18 15:56:00,75.2,57.6,30.19,South,180,1.0,9.0,54,0.00,,,0.00,WUHU216DAVISVP2,2013-07-18 22:56:00,
2013-07-18 16:01:00,75.4,56.5,30.19,WSW,239,0.0,9.0,52,0.00,,,0.00,WUHU216DAVISVP2,2013-07-18 23:01:00,
2013-07-18 16:06:00,76.1,57.9,30.19,SW,225,2.0,8.0,53,0.00,,,0.00,WUHU216DAVISVP2,2013-07-18 23:06:00,
2013-07-18 16:11:00,75.3,57.1,30.18,SW,219,1.0,8.0,53,0.00,,,0.00,WUHU216DAVISVP2,2013-07-18 23:11:00,
2013-07-18 16:16:00,76.2,57.8,30.18,SSE,160,0.0,8.0,53,0.00,,,0.00,WUHU216DAVISVP2,2013-07-18 23:16:00,
2013-07-18 16:21:00,76.3,56.9,30.18,SSW,211,0.0,8.0,51,0.00,,,0.00,WUHU216DAVISVP2,2013-07-18 23:21:00,
2013-07-18 16:26:00,75.8,57.6,30.18,NE,49,1.0,6.0,53,0.00,,,0.00,WUHU216DAVISVP2,2013-07-18 23:26:00,
2013-07-18 16:31:00,76.1,57.2,30.18,NNW,332,0.0,5.0,52,0.00,,,0.00,WUHU216DAVISVP2,2013-07-18 23:31:00,
2013-07-18 16:36:00,76.5,57.7,30.18,NNE,30,1.0,5.0,52,0.00,,,0.00,WUHU216DAVISVP2,2013-07-18 23:36:00,
2013-07-18 16:41:00,76.9,57.5,30.18,SE,133,0.0,5.0,51,0.00,,,0.00,WUHU216DAVISVP2,2013-07-18 23:41:00,
2013-07-18 16:46:00,77.6,57.5,30.18,ESE,113,1.0,4.0,50,0.00,,,0.00,WUHU216DAVISVP2,2013-07-18 23:46:00,
2013-07-18 16:51:00,77.0,57.0,30.18,North,358,1.0,4.0,50,0.00,,,0.00,WUHU216DAVISVP2,2013-07-18 23:51:00,
2013-07-18 16:56:00,76.5,57.1,30.18,North,352,3.0,5.0,51,0.00,,,0.00,WUHU216DAVISVP2,2013-07-18 23:56:00,
2013-07-18 17:01:00,76.3,57.4,30.17,ESE,102,0.0,5.0,52,0.00,,,0.00,WUHU216DAVISVP2,2013-07-19 00:01:00,
2013-07-18 17:06:00,76.7,57.3,30.17,NNW,330,0.0,5.0,51,0.00,,,0.00,WUHU216DAVISVP2,2013-07-19 00:06:00,
2013-07-18 17:11:00,76.5,57.1,30.17,NE,38,2.0,4.0,51,0.00,,,0.00,WUHU216DAVISVP2,2013-07-19 00:11:00,
2013-07-18 17:16:00,76.2,57.3,30.17,NNE,24,1.0,6.0,52,0.00,,,0.00,WUHU216DAVISVP2,2013-07-19 00:16:00,
2013-07-18 17:21:00,76.2,57.4,30.17,NNW,345,0.0,6.0,52,0.00,,,0.00,WUHU216DAVISVP2,2013-07-19 00:21:00,
2013-07-18 17:26:00,76.3,57.5,30.17,NNE,32,2.0,5.0,52,0.00,,,0.00,WUHU216DAVISVP2,2013-07-19 00:26:00,
2013-07-18 17:31:00,75.9,57.1,30.17,NE,41,1.0,5.0,52,0.00,,,0.00,WUHU216DAVISVP2,2013-07-19 00:31:00,
2013-07-18 17:36:00,75.4,56.7,30.17,NNE,27,2.0,4.0,52,0.00,,,0.00,WUHU216DAVISVP2,2013-07-19 00:36:00,
2013-07-18 17:41:00,75.2,56.9,30.17,NNE,23,0.0,4.0,53,0.00,,,0.00,WUHU216DAVISVP2,2013-07-19 00:41:00,
2013-07-18 17:46:00,75.4,57.2,30.17,NNW,330,2.0,4.0,53,0.00,,,0.00,WUHU216DAVISVP2,2013-07-19 00:46:00,
2013-07-18 17:51:00,75.2,57.0,30.17,NNW,342,2.0,4.0,53,0.00,,,0.00,WUHU216DAVISVP2,2013-07-19 00:51:00,
2013-07-18 17:56:00,74.6,56.9,30.17,SSW,193,0.0,5.0,54,0.00,,,0.00,WUHU216DAVISVP2,2013-07-19 00:56:00,
2013-07-18 18:01:00,74.1,56.5,30.17,North,354,1.0,5.0,54,0.00,,,0.00,WUHU216DAVISVP2,2013-07-19 01:01:00,
2013-07-18 18:06:00,73.9,56.7,30.17,NE,34,0.0,5.0,55,0.00,,,0.00,WUHU216DAVISVP2,2013-07-19 01:06:00,
2013-07-18 18:11:00,73.7,57.2,30.16,North,8,2.0,7.0,56,0.00,,,0.00,WUHU216DAVISVP2,2013-07-19 01:11:00,
2013-07-18 18:16:00,74.0,57.0,30.16,North,354,1.0,7.0,55,0.00,,,0.00,WUHU216DAVISVP2,2013-07-19 01:16:00,
2013-07-18 18:21:00,74.0,56.8,30.17,NNE,20,0.0,6.0,55,0.00,,,0.00,WUHU216DAVISVP2,2013-07-19 01:21:00,
2013-07-18 18:26:00,73.7,56.7,30.16,NNE,31,0.0,8.0,55,0.00,,,0.00,WUHU216DAVISVP2,2013-07-19 01:26:00,
2013-07-18 18:31:00,73.7,57.2,30.16,ESE,110,0.0,8.0,56,0.00,,,0.00,WUHU216DAVISVP2,2013-07-19 01:31:00,
2013-07-18 18:36:00,73.4,56.9,30.16,SSW,211,0.0,7.0,56,0.00,,,0.00,WUHU216DAVISVP2,2013-07-19 01:36:00,
2013-07-18 18:41:00,73.3,56.8,30.16,NE,45,1.0,7.0,56,0.00,,,0.00,WUHU216DAVISVP2,2013-07-19 01:41:00,
2013-07-18 18:46:00,72.8,56.8,30.16,NW,322,2.0,6.0,57,0.00,,,0.00,WUHU216DAVISVP2,2013-07-19 01:46:00,
2013-07-18 18:51:00,72.7,57.2,30.16,NNE,30,0.0,6.0,58,0.00,,,0.00,WUHU216DAVISVP2,2013-07-19 01:51:00,
2013-07-18 18:56:00,72.6,56.7,30.16,SSW,197,0.0,6.0,57,0.00,,,0.00,WUHU216DAVISVP2,2013-07-19 01:56:00,
2013-07-18 19:01:00,72.4,57.0,30.16,North,3,0.0,6.0,58,0.00,,,0.00,WUHU216DAVISVP2,2013-07-19 02:01:00,
2013-07-18 19:06:00,71.9,57.0,30.16,NW,307,1.0,5.0,59,0.00,,,0.00,WUHU216DAVISVP2,2013-07-19 02:06:00,
2013-07-18 19:11:00,71.2,56.8,30.16,NNE,17,0.0,5.0,60,0.00,,,0.00,WUHU216DAVISVP2,2013-07-19 02:11:00,
2013-07-18 19:16:00,70.6,56.7,30.16,NE,38,1.0,7.0,61,0.00,,,0.00,WUHU216DAVISVP2,2013-07-19 02:16:00,
2013-07-18 19:21:00,70.3,56.2,30.16,NNE,27,1.0,7.0,61,0.00,,,0.00,WUHU216DAVISVP2,2013-07-19 02:21:00,
2013-07-18 19:26:00,69.9,55.8,30.16,NNE,12,0.0,6.0,61,0.00,,,0.00,WUHU216DAVISVP2,2013-07-19 02:26:00,
2013-07-18 19:31:00,69.5,56.1,30.16,NNE,12,3.0,7.0,62,0.00,,,0.00,WUHU216DAVISVP2,2013-07-19 02:31:00,
2013-07-18 19:36:00,69.1,56.2,30.16,ENE,60,0.0,7.0,63,0.00,,,0.00,WUHU216DAVISVP2,2013-07-19 02:36:00,
2013-07-18 19:41:00,68.8,55.9,30.16,NW,322,2.0,8.0,63,0.00,,,0.00,WUHU216DAVISVP2,2013-07-19 02:41:00,
2013-07-18 19:46:00,68.3,55.6,30.16,North,11,3.0,8.0,64,0.00,,,0.00,WUHU216DAVISVP2,2013-07-19 02:46:00,
2013-07-18 19:51:00,67.9,55.9,30.16,NNE,13,1.0,8.0,65,0.00,,,0.00,WUHU216DAVISVP2,2013-07-19 02:51:00,
2013-07-18 19:56:00,67.9,55.9,30.16,NNW,347,4.0,8.0,65,0.00,,,0.00,WUHU216DAVISVP2,2013-07-19 02:56:00,
2013-07-18 20:01:00,67.6,55.4,30.16,NNE,16,4.0,7.0,65,0.00,,,0.00,WUHU216DAVISVP2,2013-07-19 03:01:00,
2013-07-18 20:06:00,67.5,55.9,30.16,North,8,4.0,7.0,66,0.00,,,0.00,WUHU216DAVISVP2,2013-07-19 03:06:00,
2013-07-18 20:11:00,67.1,55.8,30.16,North,350,3.0,9.0,67,0.00,,,0.00,WUHU216DAVISVP2,2013-07-19 03:11:00,
2013-07-18 20:16:00,66.7,56.0,30.16,NNE,30,0.0,9.0,68,0.00,,,0.00,WUHU216DAVISVP2,2013-07-19 03:16:00,
2013-07-18 20:21:00,66.6,55.7,30.16,NNW,336,0.0,8.0,68,0.00,,,0.00,WUHU216DAVISVP2,2013-07-19 03:21:00,
2013-07-18 20:26:00,66.1,55.8,30.16,NW,321,0.0,8.0,69,0.00,,,0.00,WUHU216DAVISVP2,2013-07-19 03:26:00,
2013-07-18 20:31:00,65.6,55.7,30.16,NNE,27,1.0,6.0,70,0.00,,,0.00,WUHU216DAVISVP2,2013-07-19 03:31:00,
2013-07-18 20:36:00,65.3,55.8,30.16,SSW,204,0.0,6.0,71,0.00,,,0.00,WUHU216DAVISVP2,2013-07-19 03:36:00,
2013-07-18 20:41:00,64.9,55.4,30.16,NNE,16,0.0,6.0,71,0.00,,,0.00,WUHU216DAVISVP2,2013-07-19 03:41:00,
2013-07-18 20:46:00,64.7,55.6,30.16,SSW,210,0.0,6.0,72,0.00,,,0.00,WUHU216DAVISVP2,2013-07-19 03:46:00,
2013-07-18 20:51:00,64.5,55.7,30.16,North,352,1.0,5.0,73,0.00,,,0.00,WUHU216DAVISVP2,2013-07-19 03:51:00,
2013-07-18 20:56:00,64.1,55.4,30.16,North,355,0.0,3.0,73,0.00,,,0.00,WUHU216DAVISVP2,2013-07-19 03:56:00,
2013-07-18 21:01:00,63.8,55.5,30.16,NNW,334,1.0,2.0,74,0.00,,,0.00,WUHU216DAVISVP2,2013-07-19 04:01:00,
2013-07-18 21:02:00,63.8,55.5,30.16,NNE,17,0.0,2.0,74,0.00,,,0.00,WUHU216DAVISVP2,2013-07-19 04:02:00,
2013-07-18 21:07:00,63.5,55.5,30.16,NNE,23,0.0,2.0,75,0.00,,,0.00,WUHU216DAVISVP2,2013-07-19 04:07:00,
2013-07-18 21:12:00,63.3,55.7,30.16,NNE,13,0.0,2.0,76,0.00,,,0.00,WUHU216DAVISVP2,2013-07-19 04:12:00,
2013-07-18 21:17:00,63.0,55.8,30.17,NE,39,0.0,5.0,77,0.00,,,0.00,WUHU216DAVISVP2,2013-07-19 04:17:00,
2013-07-18 21:22:00,62.9,55.7,30.17,NW,326,1.0,5.0,77,0.00,,,0.00,WUHU216DAVISVP2,2013-07-19 04:22:00,
2013-07-18 21:27:00,62.8,55.9,30.17,NNE,20,0.0,5.0,78,0.00,,,0.00,WUHU216DAVISVP2,2013-07-19 04:27:00,
2013-07-18 21:32:00,62.6,55.7,30.17,NE,46,1.0,5.0,78,0.00,,,0.00,WUHU216DAVISVP2,2013-07-19 04:32:00,
2013-07-18 21:37:00,62.4,55.5,30.17,North,349,1.0,4.0,78,0.00,,,0.00,WUHU216DAVISVP2,2013-07-19 04:37:00,
2013-07-18 21:42:00,62.2,55.7,30.17,North,4,0.0,4.0,79,0.00,,,0.00,WUHU216DAVISVP2,2013-07-19 04:42:00,
2013-07-18 21:47:00,62.0,55.5,30.17,NNE,30,0.0,3.0,79,0.00,,,0.00,WUHU216DAVISVP2,2013-07-19 04:47:00,
2013-07-18 21:52:00,61.9,55.4,30.17,NNW,342,0.0,3.0,79,0.00,,,0.00,WUHU216DAVISVP2,2013-07-19 04:52:00,
2013-07-18 21:57:00,61.7,55.5,30.17,NNW,345,1.0,3.0,80,0.00,,,0.00,WUHU216DAVISVP2,2013-07-19 04:57:00,
2013-07-18 22:02:00,61.5,55.3,30.17,North,356,0.0,6.0,80,0.00,,,0.00,WUHU216DAVISVP2,2013-07-19 05:02:00,
2013-07-18 22:07:00,61.4,55.6,30.17,North,353,1.0,6.0,81,0.00,,,0.00,WUHU216DAVISVP2,2013-07-19 05:07:00,
2013-07-18 22:12:00,61.3,55.5,30.17,NNE,12,0.0,5.0,81,0.00,,,0.00,WUHU216DAVISVP2,2013-07-19 05:12:00,
2013-07-18 22:17:00,61.1,55.3,30.17,NNE,12,0.0,5.0,81,0.00,,,0.00,WUHU216DAVISVP2,2013-07-19 05:17:00,
2013-07-18 22:22:00,61.0,55.5,30.17,North,5,0.0,3.0,82,0.00,,,0.00,WUHU216DAVISVP2,2013-07-19 05:22:00,
2013-07-18 22:27:00,60.8,55.3,30.17,North,3,0.0,2.0,82,0.00,,,0.00,WUHU216DAVISVP2,2013-07-19 05:27:00,
2013-07-18 22:32:00,60.7,55.2,30.17,North,358,0.0,1.0,82,0.00,,,0.00,WUHU216DAVISVP2,2013-07-19 05:32:00,
2013-07-18 22:37:00,60.6,55.1,30.17,NNE,20,0.0,1.0,82,0.00,,,0.00,WUHU216DAVISVP2,2013-07-19 05:37:00,
2013-07-18 22:42:00,60.5,55.3,30.17,NNE,20,0.0,1.0,83,0.00,,,0.00,WUHU216DAVISVP2,2013-07-19 05:42:00,
2013-07-18 22:47:00,60.3,54.8,30.17,NNE,20,0.0,1.0,82,0.00,,,0.00,WUHU216DAVISVP2,2013-07-19 05:47:00,
2013-07-18 22:52:00,60.1,54.9,30.17,NNE,20,0.0,1.0,83,0.00,,,0.00,WUHU216DAVISVP2,2013-07-19 05:52:00,
2013-07-18 22:57:00,60.0,54.8,30.17,NNE,20,0.0,0.0,83,0.00,,,0.00,WUHU216DAVISVP2,2013-07-19 05:57:00,
2013-07-18 23:02:00,59.9,54.7,30.17,NNE,20,0.0,0.0,83,0.00,,,0.00,WUHU216DAVISVP2,2013-07-19 06:02:00,
2013-07-18 23:07:00,59.8,54.6,30.17,NNE,20,0.0,0.0,83,0.00,,,0.00,WUHU216DAVISVP2,2013-07-19 06:07:00,
2013-07-18 23:12:00,59.7,54.6,30.17,NNE,20,0.0,0.0,83,0.00,,,0.00,WUHU216DAVISVP2,2013-07-19 06:12:00,
2013-07-18 23:17:00,59.7,54.6,30.17,NNE,20,0.0,0.0,83,0.00,,,0.00,WUHU216DAVISVP2,2013-07-19 06:17:00,
2013-07-18 23:22:00,59.8,54.7,30.17,NNE,20,0.0,1.0,83,0.00,,,0.00,WUHU216DAVISVP2,2013-07-19 06:22:00,
2013-07-18 23:27:00,59.8,54.7,30.17,NNE,20,0.0,1.0,83,0.00,,,0.00,WUHU216DAVISVP2,2013-07-19 06:27:00,
2013-07-18 23:32:00,59.9,54.7,30.17,NNE,20,0.0,1.0,83,0.00,,,0.00,WUHU216DAVISVP2,2013-07-19 06:32:00,
2013-07-18 23:37:00,59.7,54.2,30.17,NNE,20,0.0,1.0,82,0.00,,,0.00,WUHU216DAVISVP2,2013-07-19 06:37:00,
2013-07-18 23:42:00,59.5,54.3,30.17,NNE,20,0.0,1.0,83,0.00,,,0.00,WUHU216DAVISVP2,2013-07-19 06:42:00,
2013-07-18 23:47:00,59.6,54.5,30.17,NNE,13,0.0,1.0,83,0.00,,,0.00,WUHU216DAVISVP2,2013-07-19 06:47:00,
2013-07-18 23:52:00,59.7,54.6,30.17,North,357,0.0,1.0,83,0.00,,,0.00,WUHU216DAVISVP2,2013-07-19 06:52:00,
2013-07-18 23:57:00,59.8,54.3,30.17,North,349,0.0,1.0,82,0.00,,,0.00,WUHU216DAVISVP2,2013-07-19 06:57:00,